Weather History for Ruidoso, NM

Change the Weather History Date:

Tuesday, September 24, 2013

  Actual Average Record
Temperature  
Mean Temperature 58 °F -  
Max Temperature 71 °F 71 °F 84 °F (1998)
Min Temperature 46 °F 49 °F 35 °F (2004)
Degree Days  
Heating Degree Days 6    
Growing Degree Days 8 (Base 50)    
Moisture  
Dew Point 34 °F    
Average Humidity 40    
Maximum Humidity 57    
Minimum Humidity 24    
Precipitation  
Precipitation 0.00 in - - ()
Sea Level Pressure  
Sea Level Pressure 30.26 in    
Wind  
Wind Speed 7 mph (South)    
Max Wind Speed 15 mph    
Max Gust Speed 16 mph    
Visibility 10 miles    
Events      
Averages and records for this station are not official NWS values.
T = Trace of Precipitation, MM = Missing Value Source: NWS Daily Summary

Daily Weather History Graph

Daily Weather History Graph

Search for Another Location

Airport:

Trip Planner

Search our weather history database for the weather conditions in past years. The results will help you decide how hot, cold, wet, or windy it might be!

Date:

Astronomy

Sep. 24, 2013 Rise Set
Actual Time 6:51 AM MDT 6:55 PM MDT
Civil Twilight 6:27 AM MDT 7:20 PM MDT
Nautical Twilight 5:58 AM MDT 7:49 PM MDT
Astronomical Twilight 5:28 AM MDT 8:18 PM MDT
Moon 10:30 PM MDT (9/24) 11:53 AM MDT (9/24)
Length of Visible Light 12h 53m
Length of Day
12h 03m
Waning Gibbous, 72% of the Moon is Illuminated
Sep 24
Waning Gibbous
Sep 26
Last Quarter
Oct 4
New
Oct 11
First Quarter
Oct 18
Full

Hourly Weather History & Observations

Time (MDT) Temp. Windchill Dew Point Humidity Pressure Visibility Wind Dir Wind Speed Gust Speed Precip Events Conditions
12:15 AM 53.6 °F - 28.4 °F 38% 30.22 in 10.0 mi NW 10.4 mph - N/A   Clear
12:35 AM 51.8 °F - 30.2 °F 44% 30.23 in 10.0 mi West 6.9 mph - N/A   Clear
12:55 AM 51.8 °F - 28.4 °F 41% 30.23 in 10.0 mi WNW 6.9 mph - N/A   Clear
1:35 AM 53.6 °F - 26.6 °F 35% 30.23 in 10.0 mi WNW 9.2 mph - N/A   Clear
1:55 AM 53.6 °F - 24.8 °F 33% 30.23 in 10.0 mi WNW 10.4 mph - N/A   Clear
2:15 AM 53.6 °F - 23.0 °F 30% 30.24 in 10.0 mi NW 6.9 mph - N/A   Clear
2:35 AM 53.6 °F - 24.8 °F 33% 30.24 in 10.0 mi WNW 5.8 mph - N/A   Clear
2:55 AM 51.8 °F - 24.8 °F 35% 30.24 in 10.0 mi WNW 5.8 mph - N/A   Clear
3:35 AM 53.6 °F - 26.6 °F 35% 30.25 in 10.0 mi West 5.8 mph - N/A   Clear
3:55 AM 50.0 °F - 26.6 °F 40% 30.24 in 10.0 mi West 8.1 mph - N/A   Clear
4:15 AM 50.0 °F - 26.6 °F 40% 30.24 in 10.0 mi West 6.9 mph - N/A   Clear
4:35 AM 51.8 °F - 28.4 °F 41% 30.24 in 10.0 mi WNW 6.9 mph - N/A   Clear
4:55 AM 48.2 °F - 28.4 °F 46% 30.25 in 10.0 mi WSW 5.8 mph - N/A   Clear
5:15 AM 46.4 °F 42.9 °F 28.4 °F 50% 30.25 in 10.0 mi SW 6.9 mph - N/A   Clear
5:35 AM 46.4 °F 42.9 °F 30.2 °F 53% 30.25 in 10.0 mi West 6.9 mph - N/A   Clear
5:55 AM 46.4 °F 42.9 °F 32.0 °F 57% 30.26 in 10.0 mi West 6.9 mph - N/A   Clear
6:15 AM 48.2 °F - 32.0 °F 54% 30.27 in 10.0 mi West 8.1 mph - N/A   Clear
6:35 AM 48.2 °F - 32.0 °F 54% 30.27 in 10.0 mi West 8.1 mph - N/A   Clear
6:55 AM 48.2 °F - 32.0 °F 54% 30.28 in 10.0 mi West 8.1 mph - N/A   Clear
7:15 AM 48.2 °F - 32.0 °F 54% 30.29 in 10.0 mi West 4.6 mph - N/A   Clear
7:35 AM 48.2 °F - 32.0 °F 54% 30.29 in 10.0 mi West 6.9 mph - N/A   Clear
7:55 AM 53.6 °F - 32.0 °F 44% 30.30 in 10.0 mi NW 3.5 mph - N/A   Clear
8:15 AM 55.4 °F - 33.8 °F 44% 30.31 in 10.0 mi Calm Calm - N/A   Clear
8:35 AM 55.4 °F - 33.8 °F 44% 30.31 in 10.0 mi WNW 4.6 mph - N/A   Clear
8:55 AM 57.2 °F - 33.8 °F 41% 30.32 in 10.0 mi Calm Calm - N/A   Clear
9:15 AM 59.0 °F - 33.8 °F 39% 30.32 in 10.0 mi NNW 3.5 mph - N/A   Clear
9:35 AM 60.8 °F - 32.0 °F 34% 30.32 in 10.0 mi NW 3.5 mph - N/A   Clear
9:55 AM 62.6 °F - 32.0 °F 32% 30.33 in 10.0 mi Calm Calm - N/A   Clear
10:15 AM 64.4 °F - 32.0 °F 30% 30.33 in 10.0 mi ESE 3.5 mph - N/A   Clear
10:35 AM 64.4 °F - 32.0 °F 30% 30.33 in 10.0 mi ESE 8.1 mph - N/A   Clear
10:55 AM 66.2 °F - 32.0 °F 28% 30.32 in 10.0 mi SE 6.9 mph - N/A   Clear
11:15 AM 66.2 °F - 28.4 °F 24% 30.32 in 10.0 mi ESE 5.8 mph - N/A   Clear
11:55 AM 68.0 °F - 33.8 °F 28% 30.31 in 10.0 mi ESE 4.6 mph - N/A   Clear
12:15 PM 68.0 °F - 32.0 °F 26% 30.31 in 10.0 mi SE 5.8 mph - N/A   Clear
12:35 PM 68.0 °F - 33.8 °F 28% 30.31 in 10.0 mi SE 6.9 mph - N/A   Clear
12:55 PM 68.0 °F - 33.8 °F 28% 30.30 in 10.0 mi North 4.6 mph - N/A   Clear
1:15 PM 69.8 °F - 35.6 °F 28% 30.29 in 10.0 mi ESE 4.6 mph - N/A   Clear
1:35 PM 69.8 °F - 35.6 °F 28% 30.29 in 10.0 mi SSE 9.2 mph 16.1 mph N/A   Clear
1:55 PM 69.8 °F - 35.6 °F 28% 30.27 in 10.0 mi SE 9.2 mph - N/A   Clear
2:15 PM 69.8 °F - 35.6 °F 28% 30.27 in 10.0 mi SE 4.6 mph - N/A   Clear
2:35 PM 69.8 °F - 37.4 °F 31% 30.26 in 10.0 mi East 8.1 mph - N/A   Clear
2:55 PM 71.6 °F - 37.4 °F 29% 30.26 in 10.0 mi SE 9.2 mph - N/A   Clear
3:15 PM 71.6 °F - 37.4 °F 29% 30.25 in 10.0 mi SSE 10.4 mph - N/A   Clear
3:35 PM 71.6 °F - 37.4 °F 29% 30.24 in 10.0 mi SE 8.1 mph - N/A   Clear
3:55 PM 71.6 °F - 39.2 °F 31% 30.23 in 10.0 mi SE 10.4 mph - N/A   Clear
4:15 PM 71.6 °F - 39.2 °F 31% 30.23 in 10.0 mi SE 11.5 mph - N/A   Clear
4:35 PM 71.6 °F - 39.2 °F 31% 30.23 in 10.0 mi SSE 12.7 mph - N/A   Clear
4:55 PM 69.8 °F - 39.2 °F 33% 30.23 in 10.0 mi SE 11.5 mph - N/A   Clear
5:15 PM 68.0 °F - 39.2 °F 35% 30.23 in 10.0 mi ESE 9.2 mph - N/A   Clear
5:35 PM 68.0 °F - 39.2 °F 35% 30.22 in 10.0 mi SE 15.0 mph - N/A   Clear
5:55 PM 68.0 °F - 39.2 °F 35% 30.22 in 10.0 mi SE 15.0 mph - N/A   Clear
6:15 PM 66.2 °F - 39.2 °F 37% 30.22 in 10.0 mi SSE 10.4 mph - N/A   Clear
6:35 PM 66.2 °F - 39.2 °F 37% 30.22 in 10.0 mi SSE 12.7 mph - N/A   Clear
6:55 PM 62.6 °F - 39.2 °F 42% 30.22 in 10.0 mi SSE 12.7 mph - N/A   Clear
7:15 PM 62.6 °F - 39.2 °F 42% 30.22 in 10.0 mi SSE 11.5 mph - N/A   Clear
7:35 PM 60.8 °F - 39.2 °F 45% 30.22 in 10.0 mi SSE 10.4 mph - N/A   Clear
7:55 PM 59.0 °F - 39.2 °F 48% 30.23 in 10.0 mi SSE 9.2 mph - N/A   Clear
8:15 PM 59.0 °F - 39.2 °F 48% 30.24 in 10.0 mi SSE 10.4 mph - N/A   Clear
8:35 PM 57.2 °F - 39.2 °F 51% 30.24 in 10.0 mi SE 10.4 mph - N/A   Clear
8:55 PM 55.4 °F - 39.2 °F 54% 30.24 in 10.0 mi SE 10.4 mph - N/A   Clear
9:15 PM 55.4 °F - 39.2 °F 54% 30.24 in 10.0 mi SE 8.1 mph - N/A   Clear
9:35 PM 55.4 °F - 39.2 °F 54% 30.24 in 10.0 mi SSW 4.6 mph - N/A   Clear
9:55 PM 55.4 °F - 39.2 °F 54% 30.24 in 10.0 mi SSW 3.5 mph - N/A   Clear
10:15 PM 57.2 °F - 39.2 °F 51% 30.24 in 10.0 mi Calm Calm - N/A   Clear
10:35 PM 57.2 °F - 39.2 °F 51% 30.24 in 10.0 mi Calm Calm - N/A   Clear
10:55 PM 57.2 °F - 39.2 °F 51% 30.23 in 10.0 mi Calm Calm - N/A   Clear
11:15 PM 55.4 °F - 39.2 °F 54% 30.23 in 10.0 mi Calm Calm - N/A   Clear
11:35 PM 55.4 °F - 37.4 °F 51% 30.22 in 10.0 mi Calm Calm - N/A   Clear
11:55 PM 51.8 °F - 35.6 °F 54% 30.22 in 10.0 mi SW 6.9 mph - N/A   Clear